Location: Bothwell
(42.3833°S, 147.0000°E)
Time: 18:42:53
(UTC+11:00)

Gurwin Techsat 1B - Pass Details

Date: 03 October 2022
Orbit: 811 x 814 km, 98.8° (Epoch: 26 November)

Event Time Altitude Azimuth Distance (km) Brightness Sun altitude
Exits shadow 02:29:46 22° 173° (S) 1,757 10.8 -39.7°
Drops below altitude 10° 02:31:39 10° 182° (S) 2,435 11.6 -39.5°
Sets 02:34:05 0° 188° (S) 3,374 12.4 -39.3°
